Cloud_Cover
100 100 100 100 100 100 100 100 100 100 92 100 100 100 100 100 100 100 100 100 100 96 94 100 100 100 100 100 100 100 100 100 98 5 1 5 12 87 10 5 5 10 7 5 8
100 100 100 100 100 100 100 100 100 100 100 100 100 100 96 100 77 100 100 100 100 100 100 100 100 100 100 100 100 100 100 100 42 5 5 5 28 74 42 5 5 6 16 5 34
100 100 100 100 100 100 100 100 100 100 100 100 59 100 100 100 99 100 100 100 100 100 100 100 100 100 100 100 100 100 100 100 44 15 33 8 98 100 98 21 5 35 60 49 24
100 100 100 100 100 100 100 100 100 100 100 100 98 68 100 100 100 100 100 100 100 100 100 100 99 100 100 100 100 100 100 100 99 78 5 44 98 100 100 100 20 9 19 90 84
100 100 100 100 100 100 100 100 100 100 100 100 95 98 100 100 100 100 100 100 100 100 100 100 100 81 59 99 90 100 100 100 100 100 56 50 96 100 100 100 100 61 14 8 47
100 100 100 100 100 100 100 100 100 100 100 100 99 75 8 100 100 100 100 100 100 100 100 100 100 97 86 77 85 100 100 100 100 100 100 100 100 100 100 75 53 100 100 75 6
100 100 100 100 100 100 100 100 100 100 98 100 100 80 11 100 100 100 100 100 100 100 100 100 100 99 100 94 100 99 100 100 100 100 100 100 98 100 100 84 5 82 100 100 100
100 100 100 100 100 100 100 100 100 100 80 100 100 100 100 92 100 100 100 100 100 100 100 100 100 95 95 99 100 100 75 100 100 100 100 100 100 100 100 100 97 46 100 100 100
100 100 100 100 100 100 100 100 100 100 100 100 100 100 100 100 97 100 100 100 100 100 100 99 100 100 77 100 94 100 100 100 100 100 100 75 99 100 100 100 100 95 91 100 100
100 100 100 100 100 100 100 100 100 100 100 60 100 100 100 100 100 100 100 100 100 100 100 100 100 100 99 100 97 100 100 100 100 100 100 95 100 100 48 99 26 100 100 84 87
100 100 100 100 100 100 100 100 100 100 100 50 100 100 100 100 100 100 100 100 100 100 100 100 100 100 100 100 100 100 100 100 100 100 94 95 100 100 38 100 100 98 100 100 95
100 100 100 100 100 100 100 100 100 100 100 100 100 100 97 100 100 100 100 100 100 100 100 100 100 100 100 100 100 100 100 100 100 100 68 37 100 78 77 91 58 56 100 53 38
100 100 100 100 100 100 100 100 100 100 100 100 100 100 100 100 100 100 100 100 100 100 100 100 100 100 91 86 85 71 100 100 100 100 100 51 100 41 5 22 92 78 21 76 86
100 100 100 100 100 100 100 100 100 100 100 100 100 100 100 99 100 100 100 100 100 100 100 100 100 100 100 83 88 56 44 100 72 70 72 97 100 100 100 98 66 74 94 69 96
100 100 100 100 100 100 100 100 100 100 100 100 100 100 100 100 94 100 100 100 100 100 100 100 100 100 100 100 100 25 59 21 11 5 5 14 16 100 100 100 100 96 95 100 97
79 100 100 100 100 100 100 100 100 100 100 100 100 100 100 86 95 100 100 100 100 90 100 100 100 100 100 100 100 100 58 95 100 90 32 100 13 90 99 20 5 15 84 100 100
47 40 3 100 100 100 100 100 100 100 100 100 100 100 100 100 100 100 100 100 99 100 100 100 100 100 100 100 100 100 100 100 80 34 5 76 38 5 100 99 64 13 5 34 23
5 0 2 72 100 100 100 100 100 100 100 100 100 100 100 100 100 100 100 100 100 100 98 100 100 100 100 100 100 100 80 9 29 100 98 93 100 100 98 97 100 100 100 96 24
65 79 20 92 100 100 100 100 100 100 100 100 100 100 100 100 100 100 100 100 100 100 100 100 100 100 100 100 100 100 100 100 100 100 100 95 100 100 100 100 100 100 100 70 72
24 91 93 100 100 100 100 100 100 100 100 100 100 92 100 99 100 100 100 100 100 100 100 100 100 100 100 100 89 100 100 100 100 100 100 100 100 100 100 100 100 100 100 100 100
95 35 5 6 100 100 100 100 100 100 100 100 98 100 100 100 100 100 100 100 100 100 100 100 100 100 100 100 100 100 100 100 82 34 5 50 100 88 100 100 90 79 100 100 100
100 47 38 6 85 100 100 100 100 100 100 100 88 12 100 100 100 100 100 100 100 100 100 100 100 100 100 100 100 100 100 100 100 100 90 7 10 14 23 30 55 5 5 5 6
100 93 100 100 47 94 100 100 100 100 100 100 100 54 85 100 100 55 100 100 100 100 100 100 100 100 85 70 93 82 100 100 100 35 5 5 13 6 5 5 5 5 33 79 100
100 100 100 100 90 100 100 93 100 100 100 100 100 100 100 97 100 100 100 100 100 100 100 100 100 100 100 100 58 56 73 55 78 96 58 8 5 6 29 25 5 26 64 93 98
100 76 8 100 92 100 99 100 100 100 100 100 100 100 15 100 100 100 100 100 100 100 100 100 100 100 100 100 100 100 39 5 48 31 28 100 100 100 34 58 10 65 5 53 73
100 66 99 54 52 7 95 100 100 100 100 100 96 100 100 7 100 100 100 100 100 100 100 100 100 100 100 100 100 100 84 5 18 28 53 76 100 100 24 41 55 5 89 70 6
76 19 49 13 80 95 100 100 100 100 100 100 100 100 100 56 100 100 100 100 100 100 100 100 100 100 100 100 100 65 93 78 14 7 5 24 95 5 5 5 5 5 5 63 5